Location: Bord�res
(43.2000°N, 0.2167°W)
Time: 14:18:34
(UTC+00:00)

MetOp-A - Pass Details

Date: 03 March 2021
Orbit: 819 x 821 km, 98.5° (Epoch: 21 April)

Event Time Altitude Azimuth Distance (km) Brightness Sun altitude
Exits shadow 19:26:34 10° 155° (SSE) 2,430 6.3 -17.9°
Reaches altitude 10° 19:26:37 10° 155° (SSE) 2,412 6.3 -17.9°
Maximum altitude 19:31:55 68° 73° (ENE) 885 4.1 -18.8°
Drops below altitude 10° 19:37:15 10° 352° (N) 2,429 6.8 -19.8°
Sets 19:39:37 0° 350° (N) 3,365 7.6 -20.2°
